[[{"header":{"parameterUnit":"m.s-1","parameterCategory":1,"la1":30.2991,"la2":30.254,"lo1":-89.0895,"lo2":-89.0444,"dy":0.0017,"dx":0.0017,"nx":28,"ny":28,"refTime":"2024-10-11T21:00:00:Z","depth":0,"parameterNumber":2,"parameterNumberName":"U-component_of_WINDS"},"data":[0,0,0,0,0,0,0,0,0,0,0,0,0,0,0,0,0,0,0,0,0,0,0,0,0,0,0,0,0,0,0,0,0,0,0,0,0,0,0,0,0,0,0,0,0,0,0,0,0,0,0,0,0,0,0,0,0,0,0.6662,0.6661,0,0.6538,0.6537,0.6535,0.6491,0.6492,0.6492,0.6493,0.6359,0.6355,0.6351,0,0,0,0,0,0,0,0,0,0,0,0,0,0.6854,0.6851,0.6662,0.6661,0.6659,0.6538,0.6537,0.6535,0.6491,0.6492,0.6492,0.6493,0.636,0.6355,0.635,0,0,0,0,0,0,0,0,0,0,0,0,0,0.6755,0.685,0.6662,0.6623,0.6618,0.6539,0.6537,0.6534,0.6491,0.6492,0.6493,0.6493,0.6362,0.6356,0.635,0.6298,0,0,0.6331,0.6329,0,0,0,0,0,0,0,0,0.676,0.6747,0.663,0.6625,0.662,0.6531,0.6555,0.6455,0.6491,0.6539,0.6493,0.6494,0.6415,0.6405,0.638,0.6292,0.6286,0.6331,0.6327,0.6325,0.6323,0,0,0,0,0,0,0,0.6767,0.6753,0.6613,0.6629,0.6622,0.6609,0.6596,0.6536,0.6474,0.6535,0.6532,0.6518,0.6412,0.6385,0.6376,0.6284,0.6331,0.6326,0.6322,0.632,0.6147,0.6146,0,0,0,0,0,0,0.6782,0.6759,0.6617,0.6609,0.6694,0.6605,0.659,0.6559,0.6475,0.6463,0.6517,0.6516,0.6395,0.6383,0.6371,0.6305,0.6325,0.6319,0.6316,0.6148,0.6147,0.6146,0,0,0,0,0,0,0.6786,0.677,0.6622,0.6683,0.6663,0.6601,0.6566,0.6556,0.6529,0.6462,0.645,0.6502,0.6395,0.638,0.6317,0.63,0.6316,0.6311,0.6149,0.6148,0.6147,0.6173,0,0,0,0,0,0,0.6792,0.6771,0.6753,0.6683,0.666,0.6572,0.6565,0.6553,0.652,0.6517,0.6444,0.6432,0.6395,0.6326,0.6311,0.6292,0.6306,0.6151,0.6149,0.6147,0.6173,0.6172,0.6172,0,0,0,0,0,0.6799,0.6764,0.6752,0.6735,0.6636,0.6571,0.6558,0.6517,0.6519,0.6498,0.6455,0.6435,0.6304,0.632,0.6303,0.6281,0.6152,0.6149,0.6147,0.6173,0.6173,0.6172,0,0,0,0,0,0,0.6831,0.6754,0.674,0.6682,0.6634,0.6564,0.6537,0.6518,0.6466,0.6466,0.6415,0.6399,0.634,0.6304,0.6324,0.6227,0.6227,0.6221,0.6252,0.6251,0.625,0.626,0.6301,0,0,0,0,0,0.6831,0.6787,0.6722,0.6676,0.6653,0.66,0.657,0.6543,0.649,0.6469,0.642,0.6368,0.6315,0.6281,0.6229,0.6168,0.615,0.6144,0.6144,0.6143,0.6139,0.6103,0.6099,0.6139,0.6139,0.6139,0,0,0.6831,0.6784,0.6759,0.6682,0.6641,0.6595,0.6582,0.6534,0.6498,0.646,0.6399,0.6362,0.63,0.6238,0.6208,0.6206,0.6124,0.6141,0.6141,0.6136,0.61,0.6097,0.6093,0.6137,0.6138,0.6138,0,0,0.6808,0.6768,0.6726,0.6686,0.6626,0.6591,0.6581,0.6514,0.6488,0.6427,0.6397,0.6353,0.6263,0.622,0.6186,0.6147,0.6125,0.6131,0.6126,0.6092,0.6089,0.6086,0.6071,0.6066,0.6126,0.6126,0.6126,0,0.6815,0.6746,0.6706,0.6659,0.6626,0.6592,0.6548,0.651,0.6435,0.6411,0.6411,0.6297,0.6253,0.618,0.6171,0.6145,0.613,0.6138,0.6093,0.609,0.6086,0.6071,0.6066,0.6127,0.6127,0.6127,0.6127,0,0.6757,0.6709,0.6682,0.6613,0.6576,0.6531,0.6482,0.6449,0.6426,0.639,0.6326,0.6272,0.6208,0.6189,0.6164,0.6112,0.6113,0.6104,0.6102,0.6084,0.6069,0.6063,0.6129,0.6128,0.6128,0.6128,0,0,0.6749,0.666,0.665,0.6618,0.655,0.6511,0.6463,0.6403,0.6375,0.6324,0.6282,0.6207,0.6198,0.6159,0.613,0.61,0.6071,0.6093,0.6091,0.609,0.6009,0.6016,0.601,0.6057,0.6056,0.6055,0.6013,0,0.6716,0.6632,0.6595,0.6527,0.6482,0.6449,0.6407,0.636,0.6325,0.6279,0.6239,0.6187,0.618,0.6156,0.6125,0.6081,0.6053,0.6084,0.6015,0.6013,0.6031,0.6002,0.6009,0.5973,0.6007,0.6006,0.6006,0,0.6666,0.6618,0.6546,0.6483,0.6462,0.6426,0.6367,0.6325,0.6269,0.6246,0.6204,0.6176,0.6122,0.6125,0.6049,0.6071,0.604,0.6014,0.6012,0.6003,0.6008,0.5992,0.5961,0.5955,0.5996,0.5997,0.5998,0,0.6667,0.6584,0.653,0.6504,0.6428,0.6403,0.637,0.6316,0.6282,0.623,0.6207,0.6148,0.6116,0.6071,0.6026,0.6033,0.5954,0.5954,0.5932,0.5933,0.5916,0.5917,0.5879,0.5898,0.5898,0.5898,0.5898,0,0.6634,0.6591,0.6529,0.6496,0.6447,0.6404,0.6355,0.6319,0.6271,0.6228,0.6195,0.6156,0.6101,0.6053,0.6018,0.596,0.5946,0.5924,0.5915,0.5926,0.5929,0.5905,0.5906,0.5896,0.5897,0.5897,0.5897,0,0.6626,0.6583,0.6522,0.6457,0.6439,0.6406,0.6348,0.6313,0.6278,0.6224,0.6209,0.6151,0.6094,0.6046,0.597,0.5946,0.5885,0.5875,0.5905,0.59,0.588,0.5882,0.5824,0.5813,0.5841,0.5841,0.584,0,0.6607,0.6574,0.6505,0.6476,0.6444,0.6397,0.6362,0.6318,0.6283,0.6217,0.619,0.6131,0.6081,0.5991,0.594,0.5882,0.5869,0.5853,0.586,0.5872,0.5867,0.587,0.5865,0.5852,0.5852,0.5852,0.5852,0,0.6578,0.6559,0.6512,0.6458,0.6418,0.6373,0.6326,0.6303,0.625,0.6212,0.6154,0.6116,0.6039,0.598,0.5916,0.5879,0.5856,0.585,0.5841,0.5852,0.5871,0.586,0.5903,0.5851,0.5851,0.5851,0.5851,0.5851,0.6563,0.6532,0.6479,0.6427,0.6388,0.6346,0.631,0.627,0.6222,0.6158,0.6134,0.6075,0.6018,0.5931,0.5894,0.5845,0.5841,0.5829,0.5826,0.5824,0.5825,0.588,0.5833,0.5833,0.5833,0.5833,0.5833,0,0.6531,0.6496,0.645,0.6387,0.6346,0.633,0.6278,0.6244,0.6193,0.6144,0.6096,0.6029,0.5971,0.5917,0.5856,0.5828,0.5815,0.5813,0.5814,0.5806,0.5832,0.5845,0.5824,0.5824,0.5824,0.5824,0.5824,0.5824,0.651,0.6456,0.6431,0.6356,0.632,0.6264,0.6235,0.6195,0.6155,0.6083,0.6036,0.6002,0.595,0.5885,0.5831,0.5816,0.5795,0.5795,0.5777,0.5802,0.5804,0.5805,0.5817,0.5791,0.5791,0.5755,0.5755,0.5755]},{"header":{"parameterUnit":"m.s-1","parameterCategory":1,"la1":30.2991,"la2":30.254,"lo1":-89.0895,"lo2":-89.0444,"dy":0.0017,"dx":0.0017,"nx":28,"ny":28,"refTime":"2024-10-11T21:00:00:Z","depth":0,"parameterNumber":3,"parameterNumberName":"V-component_of_WINDS"},"data":[0,0,0,0,0,0,0,0,0,0,0,0,0,0,0,0,0,0,0,0,0,0,0,0,0,0,0,0,0,0,0,0,0,0,0,0,0,0,0,0,0,0,0,0,0,0,0,0,0,0,0,0,0,0,0,0,0,0,-0.5643,-0.5644,0,-0.5703,-0.5704,-0.5705,-0.5703,-0.5702,-0.5701,-0.57,-0.5764,-0.5766,-0.5769,0,0,0,0,0,0,0,0,0,0,0,0,0,-0.5529,-0.5531,-0.5643,-0.5644,-0.5645,-0.5703,-0.5704,-0.5705,-0.5703,-0.5702,-0.5701,-0.57,-0.5763,-0.5766,-0.5769,0,0,0,0,0,0,0,0,0,0,0,0,0,-0.5583,-0.5532,-0.5643,-0.5651,-0.5652,-0.5703,-0.5704,-0.5705,-0.5703,-0.5702,-0.5701,-0.5699,-0.5762,-0.5766,-0.577,-0.5818,0,0,-0.5781,-0.5783,0,0,0,0,0,0,0,0,-0.558,-0.5587,-0.5649,-0.565,-0.5652,-0.5694,-0.5687,-0.5743,-0.5703,-0.5684,-0.57,-0.5699,-0.5742,-0.5747,-0.5761,-0.5821,-0.5823,-0.5781,-0.5784,-0.5785,-0.5786,0,0,0,0,0,0,0,-0.5576,-0.5585,-0.5667,-0.565,-0.5652,-0.5652,-0.5658,-0.5698,-0.5719,-0.5685,-0.5685,-0.5692,-0.5743,-0.5758,-0.5763,-0.5824,-0.5781,-0.5784,-0.5787,-0.5788,-0.5928,-0.5929,0,0,0,0,0,0,-0.5571,-0.5582,-0.5665,-0.5669,-0.5612,-0.5655,-0.5662,-0.5682,-0.5719,-0.5723,-0.5693,-0.5692,-0.5752,-0.5759,-0.5765,-0.5825,-0.5785,-0.5789,-0.5791,-0.5926,-0.5928,-0.5929,0,0,0,0,0,0,-0.5568,-0.5578,-0.5663,-0.5625,-0.5636,-0.5658,-0.5681,-0.5684,-0.5699,-0.5725,-0.5729,-0.5705,-0.5751,-0.576,-0.5805,-0.5827,-0.579,-0.5794,-0.5924,-0.5927,-0.5929,-0.5944,0,0,0,0,0,0,-0.5565,-0.5577,-0.5595,-0.5626,-0.5638,-0.5701,-0.5682,-0.5686,-0.5705,-0.5704,-0.5737,-0.5741,-0.5751,-0.5799,-0.5808,-0.5831,-0.5797,-0.5922,-0.5925,-0.5928,-0.5941,-0.5946,-0.595,0,0,0,0,0,-0.5561,-0.5597,-0.5596,-0.5606,-0.5661,-0.5702,-0.5709,-0.5719,-0.5707,-0.5726,-0.5742,-0.574,-0.5823,-0.5804,-0.5814,-0.5839,-0.5921,-0.5925,-0.5928,-0.5939,-0.5945,-0.595,0,0,0,0,0,0,-0.5569,-0.5601,-0.56,-0.5647,-0.5672,-0.5701,-0.5725,-0.5725,-0.5754,-0.5752,-0.5764,-0.5771,-0.5817,-0.5832,-0.581,-0.5888,-0.5871,-0.5876,-0.5876,-0.5882,-0.5886,-0.5882,-0.58,0,0,0,0,0,-0.5576,-0.5606,-0.5633,-0.5672,-0.5684,-0.5703,-0.5721,-0.5727,-0.5753,-0.5763,-0.5783,-0.5809,-0.5842,-0.5862,-0.5893,-0.5944,-0.5951,-0.5966,-0.597,-0.5974,-0.5978,-0.6007,-0.6014,-0.594,-0.594,-0.594,0,0,-0.5592,-0.5613,-0.5631,-0.5674,-0.5694,-0.5726,-0.5711,-0.5745,-0.5769,-0.5769,-0.5812,-0.5828,-0.5858,-0.5906,-0.5928,-0.592,-0.6001,-0.5978,-0.598,-0.5983,-0.6012,-0.6019,-0.6025,-0.5943,-0.5942,-0.5942,0,0,-0.5636,-0.5655,-0.569,-0.571,-0.5739,-0.5751,-0.576,-0.579,-0.58,-0.5844,-0.5844,-0.5873,-0.5928,-0.595,-0.5968,-0.6021,-0.6021,-0.6031,-0.6055,-0.6083,-0.6089,-0.6094,-0.6114,-0.6121,-0.6036,-0.6036,-0.6036,0,-0.5652,-0.5699,-0.5708,-0.5742,-0.5762,-0.5762,-0.5798,-0.5817,-0.5856,-0.587,-0.586,-0.593,-0.595,-0.6003,-0.6016,-0.6031,-0.6042,-0.6028,-0.6087,-0.6092,-0.6097,-0.6117,-0.6124,-0.6037,-0.6037,-0.6037,-0.6037,0,-0.5717,-0.5749,-0.5774,-0.5811,-0.5833,-0.5868,-0.5884,-0.5905,-0.591,-0.5923,-0.5968,-0.5993,-0.6029,-0.6042,-0.6046,-0.6097,-0.6091,-0.6084,-0.6067,-0.6105,-0.6124,-0.6131,-0.6039,-0.6038,-0.6038,-0.6038,0,0,-0.5768,-0.581,-0.5819,-0.5836,-0.5869,-0.5895,-0.593,-0.5965,-0.5984,-0.6011,-0.6042,-0.6088,-0.6082,-0.6103,-0.611,-0.6135,-0.6177,-0.6125,-0.6126,-0.6134,-0.6235,-0.624,-0.6249,-0.6176,-0.6178,-0.6179,-0.6233,0,-0.5816,-0.5879,-0.5888,-0.5944,-0.5975,-0.5976,-0.6007,-0.6031,-0.6045,-0.6074,-0.609,-0.6123,-0.6112,-0.6124,-0.6149,-0.6166,-0.6197,-0.6162,-0.6206,-0.6208,-0.6199,-0.6258,-0.6264,-0.6314,-0.624,-0.6241,-0.6242,0,-0.5881,-0.5909,-0.5967,-0.5997,-0.601,-0.6038,-0.6071,-0.6099,-0.6127,-0.6135,-0.6159,-0.6163,-0.6201,-0.6182,-0.6236,-0.6212,-0.623,-0.6242,-0.6244,-0.6249,-0.6228,-0.6266,-0.633,-0.6338,-0.6253,-0.6252,-0.6251,0,-0.5914,-0.5966,-0.6008,-0.6022,-0.6058,-0.6078,-0.6093,-0.612,-0.6141,-0.617,-0.6184,-0.6218,-0.6236,-0.6263,-0.6276,-0.6261,-0.633,-0.6311,-0.6339,-0.6338,-0.6353,-0.6352,-0.6422,-0.6364,-0.6364,-0.6364,-0.6364,0,-0.5967,-0.6003,-0.6023,-0.6049,-0.6089,-0.6101,-0.6141,-0.6157,-0.618,-0.621,-0.6213,-0.6241,-0.6257,-0.6288,-0.6299,-0.6343,-0.6351,-0.6359,-0.6362,-0.636,-0.6359,-0.6372,-0.637,-0.6366,-0.6365,-0.6365,-0.6364,0,-0.601,-0.6025,-0.6071,-0.6101,-0.6109,-0.6138,-0.6164,-0.619,-0.6203,-0.6241,-0.6251,-0.6272,-0.6309,-0.6325,-0.637,-0.6377,-0.6427,-0.6427,-0.6418,-0.6419,-0.6445,-0.6443,-0.6527,-0.6539,-0.6472,-0.6473,-0.6473,0,-0.6044,-0.6071,-0.6104,-0.6124,-0.614,-0.6172,-0.6193,-0.6206,-0.6228,-0.6262,-0.6284,-0.6321,-0.635,-0.6409,-0.6429,-0.6464,-0.6465,-0.6492,-0.647,-0.6467,-0.6467,-0.6465,-0.6469,-0.6496,-0.6497,-0.6498,-0.6498,0,-0.6102,-0.6108,-0.6138,-0.6171,-0.6195,-0.6222,-0.6248,-0.6264,-0.6281,-0.6306,-0.6343,-0.6366,-0.6412,-0.6449,-0.6485,-0.6502,-0.6504,-0.6505,-0.6513,-0.6511,-0.6505,-0.651,-0.6429,-0.6503,-0.6502,-0.6502,-0.6502,-0.6502,-0.6142,-0.6167,-0.6194,-0.6227,-0.6248,-0.6273,-0.6299,-0.6315,-0.6346,-0.6384,-0.639,-0.643,-0.6458,-0.6507,-0.6526,-0.6558,-0.6552,-0.6563,-0.6566,-0.6569,-0.6572,-0.6499,-0.6565,-0.6564,-0.6564,-0.6564,-0.6564,0,-0.6201,-0.6219,-0.6249,-0.6285,-0.6312,-0.631,-0.6339,-0.6362,-0.6396,-0.6423,-0.6452,-0.6495,-0.6531,-0.6554,-0.659,-0.6612,-0.6613,-0.6621,-0.662,-0.6624,-0.6575,-0.6564,-0.6619,-0.6619,-0.6619,-0.6619,-0.6619,-0.6619,-0.6235,-0.6277,-0.6287,-0.634,-0.6358,-0.6396,-0.6413,-0.6436,-0.6457,-0.6505,-0.6534,-0.6549,-0.6575,-0.6613,-0.6646,-0.6652,-0.6666,-0.6674,-0.668,-0.6633,-0.6628,-0.6622,-0.6612,-0.6676,-0.6677,-0.6727,-0.6727,-0.6728]}]]